Regional Weather Roundup
Issued by NWS Charleston, SC

Current Version | Previous Version | Text Only | Print | Product List | Glossary On
Versions: 1 2 3 4 5 6 7 8 9 10 11 12 13 14 15 16 17 18 19 20 21 22 23 24 25 26 27 28 29 30 31 32 33 34 35 36 37 38 39 40 41 42 43 44 45 46 47 48 49 50
000 ASUS42 KCHS 212225 RWRCHS REGIONAL WEATHER ROUNDUP NATIONAL WEATHER SERVICE CHARLESTON SC 600 PM EDT MON JUL 21 2014 NOTE: "FAIR" INDICATES FEW OR NO CLOUDS BELOW 12,000 FEET WITH NO SIGNIFICANT WEATHER AND/OR OBSTRUCTIONS TO VISIBILITY. NOT ALL STATIONS ARE QUALITY CONTROLLED BY THE NATIONAL WEATHER SERVICE. USE DATA WITH CAUTION...ESPECIALLY DEWPOINT OBSERVATIONS. SCZ027-030-031-034>040-042>050-212300- ...SOUTH CAROLINA... CITY SKY/WX TMP DP RH WIND PRES REMARKS N CHARLESTON CLOUDY 84 73 69 E8 30.06S HX 90 WATERFRONT PRK N/A 82 N/A N/A SE9 N/A FORT JOHNSON NOT AVBL MOUNT PLEASANT MOCLDY 82 75 78 CALM 30.07R JOHNS ISLAND PTCLDY 82 70 65 E6 30.06S PINOPOLIS N/A 84 73 70 SE2 30.00R HX 91 MONCKS CORNER N/A 81 75 83 NE10 30.08R SUMMERVILLE MOCLDY 79 77 94 CALM 30.07R BEAUFORT MCAS TSTM 76 74 93 S3 30.06F FOG BEAUFORT ARPT CLOUDY 77 77 100 CALM 30.04F HILTON HEAD IS PTSUNNY 82 75 78 N7 30.06R GEORGETOWN NOT AVBL WALTERBORO LGT RAIN 77 N/A N/A SE3 30.06R ORANGEBURG TSTM 74 71 91 VRB3 30.08R FOG BARNWELL DRIZZLE 73 72 94 NE13 30.06R AIKEN MOCLDY 79 73 83 NE14 30.09R MANNING CLOUDY 77 N/A N/A MISG 30.08S KINGSTREE NOT AVBL COLUMBIA LGT RAIN 77 73 87 E6 30.06S SUMTER TSTM 73 73 100 E12 30.09S FOG FLORENCE CLOUDY 74 72 93 CALM 30.08F MYRTLE BEACH PTSUNNY 75 72 88 N12 30.11R N MYRTLE BEACH LGT RAIN 75 72 90 NE7 30.11S $$ GAZ063-065-086>088-099>101-113>116-118-119-134-136>141-150-212300- ...GEORGIA... CITY SKY/WX TMP DP RH WIND PRES REMARKS SAVANNAH ARPT CLOUDY 75 72 90 E12 30.03F THUNDER HUNTER AAF LGT RAIN 75 73 94 E8 30.02S FORT STEWART PTSUNNY 78 72 82 NE13 30.03R THUNDER STATESBORO NOT AVBL SYLVANIA TSTM 74 74 98 S8 30.06R CLAXTON MOCLDY 79 73 83 NE8 30.03R THOMSON PTSUNNY 81 77 86 NE6 30.09R AUGUSTA-BUSH PTSUNNY 82 67 60 NW14 30.00S AUGUSTA-DANIEL CLOUDY 80 71 74 N12G23 30.04R SWAINSBORO MOCLDY 88 77 70 W7 30.03R HX 100 VIDALIA N/A 75 73 94 W5 30.04S ALMA PTSUNNY 81 68 64 W12 30.03F WAYCROSS PTSUNNY 83 73 71 W8 30.04S HX 90 JESUP NOT AVBL BRUNSWICK CLOUDY 77 72 83 CALM 30.05F SAINT SIMONS CLOUDY 76 72 87 SW8 30.05R THUNDER $$ SCZ027-028-034-036>038-045-046-048>050-GAZ119-141-212300- ...LAKE AND SUPPLEMENTAL COASTAL OBSERVATIONS... STATION/POSITION TIME TEMP WIND PRES WAVE SWELL AIR SEA DIR/SP/G HT/PER HT/PER/DIR (UTC) (F) (DEG/KT/KT) (MB) (FT/S) (FT/S/D) UPR LAKE MARION NOT AVBL WINYAH BAY 2200 81 110/ 5 1018.0S LAKE MURRAY 2100 76 50/ 2/ 8 1017.3F ACE BASIN NERRS 2200 78 CALM 1018.0S FORT PULASKI 2200 77 330/ 9/ 11 1017.4F SAPELO ISLAND 2200 80 240/ 17 1018.0R $$ ANZ835-935-AMZ111-154-330-350-352-354-374-450-454-472-212300- ...C-MAN AND BUOY OBSERVATIONS... STATION/POSITION TIME TEMP WIND PRES WAVE SWELL AIR SEA DIR/SP/G HT/PER HT/PER/DIR (UTC) (F) (DEG/KT/KT) (MB) (FT/S) (FT/S/D) FOLLY BEACH CMAN 2200 81 130/ 9/ 11 1018.3R BUOY 41004 2200 81 83 130/ 8/ 10 1017.5F 3/ 9 2/ 9 BUOY 41008 2200 82 85 130/ 10/ 12 1016.9S 2/ 8 2/100/ 8 5E ST. MARYS GA 2100 85 N/A 2/ 8 FRYING PAN BUOY NOT AVBL BUOY 41025 2200 VRB 8/ 10 1019.9R 3/ 8 3/120/ 8 CAPE LOOKOUT NC 2200 76 50/ 5/ 6 1019.6F BUOY 41002 2054 81 82 160/ 6/ 6 1020.5S 3/ 7 3/130/ 7 BUOY 41010 2200 80 83 CALM / 2 1018.2F 3/ 8 3/110/ 8 BUOY 41012 NOT AVBL ST AUGUSTINE FL 2200 81 150/ 9/ 10 1017.3F CAPERS NEARSHORE 2100 81 150/ 8/ 10 N/A FRIPP NEARSHORE NOT AVBL $$

USA.gov is the U.S. government's official web portal to all federal, state and local government web resources and services.